TimeEDT,TemperatureF,Dew PointF,Humidity,Sea Level PressureIn,VisibilityMPH,Wind Direction,Wind SpeedMPH,Gust SpeedMPH,PrecipitationIn,Events,Conditions,WindDirDegrees,DateUTC
12:00 AM,43.7,42.1,94,29.36,-9999.0,SE,2.3,-,0.01,,Unknown,130,2012-10-31 04:00:00
1:00 AM,44.1,42.1,93,29.37,-9999.0,ESE,2.3,-,N/A,,Unknown,110,2012-10-31 05:00:00
2:00 AM,44,42,90,29.37,,ESE,2.3,,,,,110,2012-10-31 06:00:00
2:00 AM,43.9,42.1,93,29.37,-9999.0,ESE,2.3,-,N/A,,Unknown,110,2012-10-31 06:00:00
3:00 AM,43.7,41.5,92,29.37,-9999.0,South,2.3,-,N/A,,Unknown,170,2012-10-31 07:00:00
4:00 AM,42.8,41.5,95,29.37,-9999.0,SSE,1.2,-,N/A,,Unknown,160,2012-10-31 08:00:00
5:00 AM,43.2,40.5,90,29.37,-9999.0,SSW,2.3,-,N/A,,Unknown,200,2012-10-31 09:00:00
6:00 AM,43.0,39.9,89,29.38,-9999.0,SSW,2.3,-,N/A,,Unknown,210,2012-10-31 10:00:00
7:00 AM,43.0,39.6,88,29.39,-9999.0,SSW,1.2,-,N/A,,Unknown,210,2012-10-31 11:00:00
8:00 AM,43,40,84,29.39,,South,2.3,,,,,180,2012-10-31 12:00:00
8:00 AM,43.2,39.7,88,29.39,-9999.0,South,2.3,-,N/A,,Unknown,180,2012-10-31 12:00:00
9:00 AM,44.1,40.3,87,29.40,-9999.0,SSW,3.5,-,N/A,,Unknown,210,2012-10-31 13:00:00
10:00 AM,45.1,40.8,85,29.40,-9999.0,West,2.3,-,N/A,,Unknown,260,2012-10-31 14:00:00
11:00 AM,45.5,40.8,84,29.40,-9999.0,West,3.5,-,N/A,,Unknown,260,2012-10-31 15:00:00
12:00 PM,46.2,40.3,80,29.41,-9999.0,WSW,3.5,-,N/A,,Unknown,240,2012-10-31 16:00:00
1:00 PM,46.0,41.5,84,29.40,-9999.0,WSW,5.8,-,N/A,,Unknown,250,2012-10-31 17:00:00
2:00 PM,47,42,77,29.40,,West,5.8,,,,,260,2012-10-31 18:00:00
2:00 PM,46.8,42.1,84,29.40,-9999.0,West,5.8,-,N/A,,Unknown,260,2012-10-31 18:00:00
3:00 PM,46.6,41.2,81,29.40,-9999.0,West,5.8,-,N/A,,Unknown,260,2012-10-31 19:00:00
4:00 PM,45.7,42.8,90,29.41,-9999.0,West,4.6,-,0.01,,Unknown,260,2012-10-31 20:00:00
5:00 PM,46.0,43.0,89,29.41,-9999.0,West,3.5,-,N/A,,Unknown,270,2012-10-31 21:00:00
6:00 PM,45.7,42.8,90,29.42,-9999.0,WSW,4.6,-,N/A,,Unknown,240,2012-10-31 22:00:00
7:00 PM,45.7,43.2,91,29.42,-9999.0,WSW,5.8,-,N/A,,Unknown,240,2012-10-31 23:00:00
8:00 PM,46,44,89,29.42,,WSW,6.9,,,,,240,2012-11-01 00:00:00
8:00 PM,46.0,43.7,92,29.42,-9999.0,WSW,6.9,-,N/A,,Unknown,240,2012-11-01 00:00:00
9:00 PM,46.8,43.5,88,29.43,-9999.0,West,8.1,-,N/A,,Unknown,280,2012-11-01 01:00:00
10:00 PM,45.9,42.1,87,29.43,-9999.0,West,9.2,-,N/A,,Unknown,280,2012-11-01 02:00:00
11:00 PM,45.3,41.0,85,29.44,-9999.0,WNW,9.2,-,N/A,,Unknown,290,2012-11-01 03:00:00